Вернуться в каталог

YAM-6

АктивенЛюбительское радиоSSO
NORAD 59126·PAYLOAD·🇺🇸 United States

Запущен Mar 4, 2024 с Vandenberg Space Force Base

Loading…

Ближайшие Пролёты (ближайшие 24 часа)

TLE

СвежийSource: Space-Track

Эпоха: Sep 14, 2026, 09:24 UTC

1 59126U 24043AE  26257.39167438  .00007142  00000-0  19046-3 0  9996
2 59126  97.5695  41.1707 0006600 269.8723  90.1765 15.38456661141026

Отслеживайте YAM-6 в реальном времени с AllMySat

Download on the App Store